This is the latest recevied weather packets stored in our database for station/object KD7CTY. If no packets are shown the sender has not sent any weather packets the latest 10 day(s).
| Time | Temp. | Humidity | Pressure | Rain* | Wind** | Luminosity | Snow |
|---|---|---|---|---|---|---|---|
| 1777679303 | 23.33° C | 52% | 1013.4 hPa | 0 mm | - | 454 W/m² | - |
| 1777679001 | 23.89° C | 52% | 1013.3 hPa | 0 mm | - | 516 W/m² | - |
| 1777678699 | 23.33° C | 52% | 1013.3 hPa | 0 mm | - | 541 W/m² | - |
| 1777678396 | 23.33° C | 53% | 1013.5 hPa | 0 mm | - | 517 W/m² | - |
| 1777678092 | 23.33° C | 52% | 1013.5 hPa | 0 mm | - | 539 W/m² | - |
| 1777677789 | 23.33° C | 52% | 1013.5 hPa | 0 mm | - | 553 W/m² | - |
| 1777677487 | 23.89° C | 52% | 1013.3 hPa | 0 mm | - | 497 W/m² | - |
| 1777677185 | 23.89° C | 52% | 1013.7 hPa | 0 mm | - | 554 W/m² | - |
| 1777676883 | 23.89° C | 52% | 1013.8 hPa | 0 mm | - | 540 W/m² | - |
| 1777676581 | 22.78° C | 54% | 1013.6 hPa | 0 mm | - | 558 W/m² | - |
| 1777676278 | 22.78° C | 54% | 1013.6 hPa | 0 mm | - | 563 W/m² | - |
| 1777675976 | 22.78° C | 53% | 1014 hPa | 0 mm | - | 554 W/m² | - |
| 1777675672 | 23.33° C | 53% | 1013.8 hPa | 0 mm | - | 565 W/m² | - |
| 1777675369 | 23.89° C | 51% | 1013.8 hPa | 0 mm | - | 598 W/m² | - |
| 1777675065 | 23.33° C | 54% | 1014.1 hPa | 0 mm | - | 600 W/m² | - |
| 1777674762 | 23.33° C | 54% | 1014.1 hPa | 0 mm | - | 600 W/m² | - |
| 1777674458 | 23.33° C | 52% | 1014.2 hPa | 0 mm | - | 629 W/m² | - |
| 1777674156 | 23.33° C | 52% | 1014.2 hPa | 0 mm | - | 550 W/m² | - |
| 1777673852 | 23.89° C | 53% | 1014.2 hPa | 0 mm | - | 587 W/m² | - |
| 1777673549 | 23.89° C | 54% | 1014.2 hPa | 0 mm | - | 613 W/m² | - |
| 1777673247 | 23.33° C | 52% | 1014.3 hPa | 0 mm | - | 542 W/m² | - |
| 1777672944 | 22.78° C | 53% | 1014.2 hPa | 0 mm | - | 532 W/m² | - |
| 1777672641 | 23.33° C | 54% | 1014.2 hPa | 0 mm | - | 419 W/m² | - |
| 1777672336 | 22.78° C | 51% | 1014.5 hPa | 0 mm | - | 550 W/m² | - |
| 1777672031 | 22.22° C | 53% | 1014.5 hPa | 0 mm | - | 790 W/m² | - |
* Rain latest hour (hover to see other rain measurements)
** Current wind speed in m/s (hover to see current wind gust speed)